| time (UTC) | temp F | wind direction | speed MPH | gust MPH | rain 1hr in | rain 24hr in | rain mn in | humidity % | barometer mb |
| 20260504081820 | 39 | 234 | 0.0 | 0.0 | 0.00 | 0.00 | 0.00 | 82 | 1013.5 |
| 20260504081600 | 39 | 234 | 0.0 | 0.0 | 0.00 | 0.00 | 0.00 | 82 | 1013.6 |
| 20260504081506 | 39 | 68 | 0.0 | 2.0 | 0.00 | 0.00 | 0.00 | 88 | 1011.6 |
| 20260504081109 | 39 | 234 | 0.0 | 0.0 | 0.00 | 0.00 | 0.00 | 81 | 1013.6 |
| 20260504081002 | 39 | 90 | 1.0 | 2.0 | 0.00 | 0.00 | 0.00 | 86 | 1011.4 |
| 20260504080603 | 39 | 234 | 0.0 | 0.0 | 0.00 | 0.00 | 0.00 | 81 | 1013.5 |
| 20260504080458 | 39 | 90 | 0.0 | 2.0 | 0.00 | 0.00 | 0.00 | 87 | 1011.6 |
| 20260504070310 | 39 | 234 | 0.0 | 0.0 | 0.00 | 0.00 | 0.00 | 79 | 1013.5 |
| 20260504050707 | 39 | 233 | 0.0 | 0.0 | 0.00 | 0.00 | 0.00 | 80 | 1013.6 |
| 20260504050311 | 40 | 82 | 1.0 | 2.0 | 0.00 | 0.00 | 0.00 | 83 | 1011.9 |
| 20260504050209 | 39 | 233 | 0.0 | 0.0 | 0.00 | 0.00 | 0.00 | 80 | 1013.6 |
| 20260504045808 | 40 | 98 | 0.0 | 1.0 | 0.00 | 0.00 | 0.00 | 82 | 1011.9 |
| 20260504045708 | 39 | 233 | 0.0 | 0.0 | 0.00 | 0.00 | 0.00 | 81 | 1013.6 |
| 20260504045450 | 39 | 233 | 0.0 | 0.0 | 0.00 | 0.00 | 0.00 | 80 | 1013.7 |
| 20260504045304 | 39 | 71 | 0.0 | 2.0 | 0.00 | 0.00 | 0.00 | 85 | 1012.1 |
| 20260504044800 | 39 | 66 | 0.0 | 2.0 | 0.00 | 0.00 | 0.00 | 86 | 1011.9 |
| 20260504044707 | 39 | 233 | 0.0 | 0.0 | 0.00 | 0.00 | 0.00 | 80 | 1013.7 |
| 20260504044258 | 39 | 90 | 1.0 | 2.0 | 0.00 | 0.00 | 0.00 | 86 | 1012.0 |
| 20260504044207 | 39 | 233 | 0.0 | 0.0 | 0.00 | 0.00 | 0.00 | 80 | 1013.6 |
| 20260504043755 | 39 | 82 | 0.0 | 2.0 | 0.00 | 0.00 | 0.00 | 86 | 1012.1 |
| 20260504043706 | 39 | 233 | 0.0 | 0.0 | 0.00 | 0.00 | 0.00 | 80 | 1013.7 |
| 20260504043251 | 39 | 90 | 2.0 | 2.0 | 0.00 | 0.00 | 0.00 | 85 | 1012.0 |
| 20260504043207 | 39 | 233 | 0.0 | 0.0 | 0.00 | 0.00 | 0.00 | 79 | 1013.6 |
| 20260504042749 | 39 | 90 | 1.0 | 2.0 | 0.00 | 0.00 | 0.00 | 85 | 1011.7 |
| 20260504042652 | 39 | 233 | 0.0 | 0.0 | 0.00 | 0.00 | 0.00 | 79 | 1013.5 |
| 20260504042434 | 40 | 233 | 0.0 | 0.0 | 0.00 | 0.00 | 0.00 | 80 | 1013.5 |
| 20260504042245 | 39 | 84 | 0.0 | 1.0 | 0.00 | 0.00 | 0.00 | 87 | 1012.0 |
| 20260504041741 | 39 | 75 | 1.0 | 2.0 | 0.00 | 0.00 | 0.00 | 87 | 1011.7 |
| 20260504041651 | 40 | 233 | 0.0 | 0.0 | 0.00 | 0.00 | 0.00 | 80 | 1013.4 |
| 20260504041238 | 39 | 95 | 2.0 | 3.0 | 0.00 | 0.00 | 0.00 | 86 | 1011.8 |
| 20260504041152 | 40 | 233 | 0.0 | 0.0 | 0.00 | 0.00 | 0.00 | 80 | 1013.4 |
| 20260504040734 | 39 | 119 | 2.0 | 2.0 | 0.00 | 0.00 | 0.00 | 85 | 1011.7 |
| 20260504040700 | 40 | 233 | 0.0 | 0.0 | 0.00 | 0.00 | 0.00 | 78 | 1013.3 |
| 20260504040232 | 39 | 84 | 1.0 | 2.0 | 0.00 | 0.00 | 0.00 | 85 | 1011.6 |
| 20260504040200 | 40 | 233 | 0.0 | 0.0 | 0.00 | 0.00 | 0.00 | 79 | 1013.3 |
| 20260504035727 | 40 | 66 | 1.0 | 2.0 | 0.00 | 0.00 | 0.00 | 86 | 1011.8 |
| 20260504035645 | 40 | 233 | 0.0 | 0.0 | 0.00 | 0.00 | 0.00 | 78 | 1013.4 |
| 20260504035225 | 40 | 90 | 2.0 | 3.0 | 0.00 | 0.00 | 0.00 | 86 | 1011.7 |
| 20260504035142 | 40 | 233 | 0.0 | 0.0 | 0.00 | 0.00 | 0.00 | 79 | 1013.3 |
| 20260504034723 | 40 | 115 | 2.0 | 3.0 | 0.00 | 0.00 | 0.00 | 84 | 1011.7 |
| 20260504034718 | 40 | 233 | 0.0 | 0.0 | 0.00 | 0.00 | 0.00 | 76 | 1013.2 |
| 20260504034706 | 40 | 233 | 0.0 | 0.0 | 0.00 | 0.00 | 0.00 | 77 | 1013.2 |
| 20260504034219 | 40 | 84 | 1.0 | 2.0 | 0.00 | 0.00 | 0.00 | 83 | 1011.7 |
| 20260504033717 | 40 | 90 | 1.0 | 2.0 | 0.00 | 0.00 | 0.00 | 82 | 1011.6 |
| 20260504033637 | 41 | 233 | 0.0 | 0.0 | 0.00 | 0.00 | 0.00 | 75 | 1013.2 |
| 20260504033214 | 40 | 60 | 1.0 | 2.0 | 0.00 | 0.00 | 0.00 | 82 | 1011.6 |
| 20260504033139 | 41 | 233 | 0.0 | 0.0 | 0.00 | 0.00 | 0.00 | 75 | 1013.2 |
| 20260504032711 | 40 | 54 | 0.0 | 2.0 | 0.00 | 0.00 | 0.00 | 84 | 1011.5 |
| 20260504032639 | 41 | 233 | 0.0 | 0.0 | 0.00 | 0.00 | 0.00 | 75 | 1013.2 |
| 20260504032208 | 40 | 105 | 0.0 | 2.0 | 0.00 | 0.00 | 0.00 | 82 | 1011.4 |
| 20260504032139 | 41 | 233 | 0.0 | 0.0 | 0.00 | 0.00 | 0.00 | 76 | 1013.1 |
| 20260504031705 | 41 | 102 | 1.0 | 2.0 | 0.00 | 0.00 | 0.00 | 82 | 1011.3 |
| 20260504031633 | 41 | 233 | 0.0 | 0.0 | 0.00 | 0.00 | 0.00 | 75 | 1013.0 |
| 20260504031202 | 41 | 90 | 1.0 | 1.0 | 0.00 | 0.00 | 0.00 | 80 | 1011.4 |
| 20260504031115 | 41 | 233 | 0.0 | 0.0 | 0.00 | 0.00 | 0.00 | 73 | 1013.1 |
| 20260504030658 | 41 | 98 | 0.0 | 1.0 | 0.00 | 0.00 | 0.00 | 81 | 1011.5 |
| 20260504030610 | 42 | 233 | 0.0 | 0.0 | 0.00 | 0.00 | 0.00 | 74 | 1013.1 |
| 20260504030345 | 42 | 233 | 0.0 | 0.0 | 0.00 | 0.00 | 0.00 | 74 | 1013.1 |
| 20260504030155 | 41 | 45 | 2.0 | 2.0 | 0.00 | 0.00 | 0.00 | 83 | 1011.4 |
| 20260504025652 | 41 | 75 | 1.0 | 2.0 | 0.00 | 0.00 | 0.00 | 83 | 1011.4 |
| 20260504025554 | 42 | 233 | 0.0 | 0.0 | 0.00 | 0.00 | 0.00 | 74 | 1013.0 |
| 20260504025148 | 41 | 90 | 1.0 | 2.0 | 0.00 | 0.00 | 0.00 | 81 | 1011.3 |
| 20260504025109 | 42 | 233 | 0.0 | 0.0 | 0.00 | 0.00 | 0.00 | 72 | 1013.0 |
| 20260504025057 | 42 | 233 | 0.0 | 0.0 | 0.00 | 0.00 | 0.00 | 75 | 1013.0 |
| 20260504024646 | 41 | 110 | 2.0 | 2.0 | 0.00 | 0.00 | 0.00 | 79 | 1011.4 |
| 20260504024142 | 42 | 96 | 2.0 | 2.0 | 0.00 | 0.00 | 0.00 | 80 | 1011.2 |
| 20260504024020 | 43 | 233 | 0.0 | 0.0 | 0.00 | 0.00 | 0.00 | 73 | 1013.0 |
| 20260504023639 | 42 | 90 | 2.0 | 2.0 | 0.00 | 0.00 | 0.00 | 80 | 1011.2 |
| 20260504023505 | 43 | 233 | 0.0 | 0.0 | 0.00 | 0.00 | 0.00 | 73 | 1013.0 |
| 20260504023135 | 42 | 70 | 2.0 | 2.0 | 0.00 | 0.00 | 0.00 | 80 | 1011.4 |
| 20260504023004 | 43 | 233 | 0.0 | 0.0 | 0.00 | 0.00 | 0.00 | 71 | 1013.0 |
| 20260504022748 | 44 | 233 | 0.0 | 0.0 | 0.00 | 0.00 | 0.00 | 73 | 1013.1 |
| 20260504022632 | 42 | 90 | 0.0 | 3.0 | 0.00 | 0.00 | 0.00 | 80 | 1011.4 |
| 20260504022127 | 43 | 90 | 1.0 | 2.0 | 0.00 | 0.00 | 0.00 | 81 | 1011.4 |
| 20260504022000 | 44 | 233 | 0.0 | 0.0 | 0.00 | 0.00 | 0.00 | 73 | 1013.1 |
| 20260504021626 | 43 | 98 | 1.0 | 2.0 | 0.00 | 0.00 | 0.00 | 81 | 1011.4 |
| 20260504021459 | 44 | 233 | 0.0 | 0.0 | 0.00 | 0.00 | 0.00 | 73 | 1013.0 |
| 20260504021122 | 43 | 84 | 2.0 | 2.0 | 0.00 | 0.00 | 0.00 | 80 | 1011.4 |
| 20260504021001 | 44 | 233 | 0.0 | 0.0 | 0.00 | 0.00 | 0.00 | 71 | 1013.1 |
| 20260504020619 | 43 | 90 | 2.0 | 2.0 | 0.00 | 0.00 | 0.00 | 77 | 1011.4 |
| 20260504020459 | 45 | 233 | 0.0 | 0.0 | 0.00 | 0.00 | 0.00 | 70 | 1013.1 |
| 20260504020115 | 44 | 85 | 2.0 | 2.0 | 0.00 | 0.00 | 0.00 | 76 | 1011.3 |
| 20260504015957 | 45 | 233 | 0.0 | 0.0 | 0.00 | 0.00 | 0.00 | 69 | 1013.1 |
| 20260504015612 | 44 | 85 | 2.0 | 2.0 | 0.00 | 0.00 | 0.00 | 72 | 1011.4 |
| 20260504015457 | 45 | 233 | 0.0 | 0.0 | 0.00 | 0.00 | 0.00 | 64 | 1013.1 |
| 20260504015108 | 44 | 90 | 1.0 | 2.0 | 0.00 | 0.00 | 0.00 | 70 | 1011.5 |
| 20260504014954 | 46 | 233 | 0.0 | 0.0 | 0.00 | 0.00 | 0.00 | 64 | 1013.0 |
| 20260504014604 | 44 | 83 | 1.0 | 2.0 | 0.00 | 0.00 | 0.00 | 74 | 1011.4 |
| 20260504014453 | 46 | 233 | 0.0 | 0.0 | 0.00 | 0.00 | 0.00 | 66 | 1013.0 |
| 20260504014236 | 46 | 233 | 0.0 | 0.0 | 0.00 | 0.00 | 0.00 | 63 | 1012.9 |
| 20260504014101 | 45 | 68 | 2.0 | 2.0 | 0.00 | 0.00 | 0.00 | 72 | 1011.2 |
| 20260504013559 | 45 | 106 | 2.0 | 2.0 | 0.00 | 0.00 | 0.00 | 70 | 1011.1 |
| 20260504013449 | 47 | 233 | 0.0 | 0.0 | 0.00 | 0.00 | 0.00 | 65 | 1012.8 |
| 20260504013055 | 45 | 99 | 2.0 | 3.0 | 0.00 | 0.00 | 0.00 | 70 | 1011.0 |
| 20260504012948 | 47 | 233 | 0.0 | 0.0 | 0.00 | 0.00 | 0.00 | 65 | 1012.7 |
| 20260504012553 | 46 | 97 | 1.0 | 2.0 | 0.00 | 0.00 | 0.00 | 67 | 1011.0 |
| 20260504012445 | 47 | 233 | 0.0 | 0.0 | 0.00 | 0.00 | 0.00 | 60 | 1012.7 |
| 20260504012051 | 46 | 63 | 2.0 | 3.0 | 0.00 | 0.00 | 0.00 | 69 | 1011.0 |
| 20260504011942 | 48 | 233 | 0.0 | 0.0 | 0.00 | 0.00 | 0.00 | 61 | 1012.7 |
| 20260504011547 | 46 | 74 | 2.0 | 2.0 | 0.00 | 0.00 | 0.00 | 67 | 1011.2 |
| 20260504011441 | 48 | 233 | 0.0 | 0.0 | 0.00 | 0.00 | 0.00 | 60 | 1012.7 |
| 20260504011043 | 47 | 80 | 2.0 | 2.0 | 0.00 | 0.00 | 0.00 | 65 | 1010.8 |
| 20260504010943 | 48 | 233 | 0.0 | 0.0 | 0.00 | 0.00 | 0.00 | 57 | 1012.6 |
| 20260504010539 | 47 | 106 | 2.0 | 2.0 | 0.00 | 0.00 | 0.00 | 65 | 1010.8 |
| 20260504010431 | 49 | 233 | 0.0 | 0.0 | 0.00 | 0.00 | 0.00 | 59 | 1012.6 |
| 20260504010036 | 48 | 90 | 1.0 | 2.0 | 0.00 | 0.00 | 0.00 | 62 | 1010.9 |
| 20260504005930 | 49 | 233 | 0.0 | 0.0 | 0.00 | 0.00 | 0.00 | 56 | 1012.5 |
| 20260504005532 | 48 | 75 | 2.0 | 2.0 | 0.00 | 0.00 | 0.00 | 65 | 1010.7 |
| 20260504005429 | 50 | 233 | 0.0 | 0.0 | 0.00 | 0.00 | 0.00 | 58 | 1012.5 |
| 20260504005030 | 49 | 90 | 2.0 | 2.0 | 0.00 | 0.00 | 0.00 | 64 | 1011.0 |
| 20260504004929 | 50 | 233 | 0.0 | 0.0 | 0.00 | 0.00 | 0.00 | 57 | 1012.5 |
| 20260504004528 | 50 | 69 | 1.0 | 2.0 | 0.00 | 0.00 | 0.00 | 61 | 1010.9 |
| 20260504004423 | 51 | 233 | 0.0 | 0.0 | 0.00 | 0.00 | 0.00 | 56 | 1012.5 |
| 20260504004024 | 51 | 117 | 0.0 | 2.0 | 0.00 | 0.00 | 0.00 | 53 | 1010.7 |
| 20260504003922 | 51 | 233 | 0.0 | 0.0 | 0.00 | 0.00 | 0.00 | 53 | 1012.4 |
| 20260504003520 | 51 | 117 | 0.0 | 2.0 | 0.00 | 0.00 | 0.00 | 57 | 1010.8 |
| 20260504003422 | 52 | 233 | 0.0 | 0.0 | 0.00 | 0.00 | 0.00 | 52 | 1012.3 |
| 20260504003017 | 52 | 114 | 0.0 | 2.0 | 0.00 | 0.00 | 0.00 | 53 | 1010.7 |
| 20260504002922 | 53 | 233 | 0.0 | 0.0 | 0.00 | 0.00 | 0.00 | 49 | 1012.2 |
| 20260504002514 | 52 | 74 | 0.0 | 2.0 | 0.00 | 0.00 | 0.00 | 50 | 1010.5 |
| 20260504002420 | 53 | 233 | 0.0 | 0.0 | 0.00 | 0.00 | 0.00 | 46 | 1012.1 |
| 20260504002012 | 53 | 99 | 0.0 | 1.0 | 0.00 | 0.00 | 0.00 | 46 | 1010.5 |
| 20260504001921 | 53 | 233 | 0.0 | 0.0 | 0.00 | 0.00 | 0.00 | 46 | 1012.1 |
| 20260504001509 | 53 | 154 | 0.0 | 1.0 | 0.00 | 0.00 | 0.00 | 47 | 1010.3 |
| 20260504001420 | 54 | 233 | 0.0 | 0.0 | 0.00 | 0.00 | 0.00 | 47 | 1012.0 |
| 20260504001005 | 54 | 188 | 0.0 | 2.0 | 0.00 | 0.00 | 0.00 | 47 | 1010.3 |
| 20260504000918 | 54 | 233 | 0.0 | 0.0 | 0.00 | 0.00 | 0.00 | 45 | 1012.0 |
| 20260504000503 | 54 | 106 | 0.0 | 2.0 | 0.00 | 0.00 | 0.00 | 47 | 1010.5 |
| 20260504000456 | 55 | 233 | 0.0 | 0.0 | 0.00 | 0.00 | 0.00 | 41 | 1011.9 |
| 20260504000441 | 55 | 233 | 0.0 | 0.0 | 0.00 | 0.00 | 0.00 | 43 | 1011.9 |
| 20260504000000 | 55 | 114 | 0.0 | 1.0 | 0.00 | 0.00 | 0.00 | 44 | 1010.3 |
| 20260503235458 | 55 | 180 | 0.0 | 1.0 | 0.00 | 0.00 | 0.00 | 43 | 1010.2 |
| 20260503235418 | 55 | 233 | 0.0 | 0.0 | 0.00 | 0.00 | 0.00 | 40 | 1011.8 |
| 20260503234955 | 55 | 172 | 0.0 | 1.0 | 0.00 | 0.00 | 0.00 | 43 | 1010.2 |
| 20260503234917 | 55 | 235 | 0.0 | 0.0 | 0.00 | 0.00 | 0.00 | 40 | 1011.8 |
| 20260503234452 | 56 | 180 | 1.0 | 1.0 | 0.00 | 0.00 | 0.00 | 44 | 1010.1 |
| 20260503234410 | 56 | 237 | 0.0 | 0.0 | 0.00 | 0.00 | 0.00 | 41 | 1011.8 |
| 20260503233950 | 56 | 215 | 0.0 | 1.0 | 0.00 | 0.00 | 0.00 | 42 | 1010.3 |
| 20260503233940 | 56 | 229 | 0.0 | 0.0 | 0.00 | 0.00 | 0.00 | 40 | 1011.6 |
| 20260503233930 | 56 | 231 | 0.0 | 0.0 | 0.00 | 0.00 | 0.00 | 40 | 1011.7 |
| 20260503233446 | 56 | 180 | 0.0 | 0.0 | 0.00 | 0.00 | 0.00 | 43 | 1010.0 |
| 20260503232943 | 56 | 209 | 0.0 | 2.0 | 0.00 | 0.00 | 0.00 | 42 | 1009.9 |
| 20260503232910 | 56 | 211 | 0.0 | 0.0 | 0.00 | 0.00 | 0.00 | 39 | 1011.6 |
| 20260503232440 | 57 | 262 | 1.0 | 1.0 | 0.00 | 0.00 | 0.00 | 41 | 1010.2 |
| 20260503232410 | 56 | 226 | 0.0 | 0.0 | 0.00 | 0.00 | 0.00 | 39 | 1011.7 |
| 20260503231938 | 57 | 200 | 1.0 | 2.0 | 0.00 | 0.00 | 0.00 | 41 | 1009.9 |
| 20260503231909 | 57 | 209 | 0.0 | 0.0 | 0.00 | 0.00 | 0.00 | 38 | 1011.6 |
| 20260503231651 | 57 | 225 | 0.0 | 0.0 | 0.00 | 0.00 | 0.00 | 38 | 1011.7 |
| 20260503231435 | 57 | 82 | 0.0 | 2.0 | 0.00 | 0.00 | 0.00 | 40 | 1010.2 |
| 20260503230931 | 57 | 203 | 0.0 | 1.0 | 0.00 | 0.00 | 0.00 | 41 | 1010.2 |
| 20260503230909 | 57 | 239 | 0.0 | 0.0 | 0.00 | 0.00 | 0.00 | 39 | 1011.6 |
| 20260503230428 | 57 | 270 | 0.0 | 3.0 | 0.00 | 0.00 | 0.00 | 39 | 1010.1 |
| 20260503230409 | 57 | 238 | 0.0 | 0.0 | 0.00 | 0.00 | 0.00 | 37 | 1011.6 |
| 20260503225926 | 57 | 331 | 0.0 | 2.0 | 0.00 | 0.00 | 0.00 | 42 | 1010.2 |
| 20260503225907 | 57 | 242 | 0.0 | 0.0 | 0.00 | 0.00 | 0.00 | 39 | 1011.6 |
| 20260503225422 | 57 | 99 | 0.0 | 3.0 | 0.00 | 0.00 | 0.00 | 40 | 1009.9 |
| 20260503225405 | 57 | 217 | 0.0 | 0.0 | 0.00 | 0.00 | 0.00 | 36 | 1011.6 |
| 20260503224918 | 58 | 245 | 2.0 | 3.0 | 0.00 | 0.00 | 0.00 | 38 | 1010.0 |
| 20260503224903 | 57 | 247 | 0.0 | 0.0 | 0.00 | 0.00 | 0.00 | 36 | 1011.5 |
| 20260503224415 | 58 | 281 | 3.0 | 3.0 | 0.00 | 0.00 | 0.00 | 42 | 1009.9 |
| 20260503224405 | 58 | 274 | 0.0 | 0.0 | 0.00 | 0.00 | 0.00 | 39 | 1011.6 |
| 20260503223913 | 58 | 330 | 2.0 | 5.0 | 0.00 | 0.00 | 0.00 | 40 | 1009.9 |
| 20260503223903 | 58 | 277 | 0.0 | 0.0 | 0.00 | 0.00 | 0.00 | 38 | 1011.5 |
| 20260503223410 | 58 | 334 | 0.0 | 2.0 | 0.00 | 0.00 | 0.00 | 40 | 1009.7 |
| 20260503223352 | 58 | 253 | 0.0 | 0.0 | 0.00 | 0.00 | 0.00 | 38 | 1011.5 |
| 20260503222911 | 58 | 83 | 3.0 | 3.0 | 0.00 | 0.00 | 0.00 | 42 | 1009.9 |
| 20260503222849 | 58 | 297 | 0.0 | 0.0 | 0.00 | 0.00 | 0.00 | 39 | 1011.3 |
| 20260503222409 | 58 | 180 | 0.0 | 2.0 | 0.00 | 0.00 | 0.00 | 40 | 1009.7 |
| 20260503222347 | 58 | 270 | 0.0 | 0.0 | 0.00 | 0.00 | 0.00 | 38 | 1011.3 |
| 20260503222135 | 58 | 197 | 0.0 | 0.0 | 0.00 | 0.00 | 0.00 | 37 | 1011.5 |
| 20260503221907 | 58 | 199 | 2.0 | 3.0 | 0.00 | 0.00 | 0.00 | 39 | 1009.9 |
| 20260503221628 | 58 | 227 | 0.0 | 0.0 | 0.00 | 0.00 | 0.00 | 36 | 1011.5 |
| 20260503221406 | 58 | 206 | 2.0 | 6.0 | 0.00 | 0.00 | 0.00 | 38 | 1009.8 |
| 20260503220901 | 58 | 291 | 0.0 | 3.0 | 0.00 | 0.00 | 0.00 | 39 | 1010.0 |
| 20260503220845 | 58 | 271 | 0.0 | 0.0 | 0.00 | 0.00 | 0.00 | 37 | 1011.5 |
| 20260503220622 | 58 | 230 | 0.0 | 0.0 | 0.00 | 0.00 | 0.00 | 35 | 1011.5 |
| 20260503220358 | 58 | 352 | 0.0 | 3.0 | 0.00 | 0.00 | 0.00 | 38 | 1009.9 |
| 20260503220124 | 58 | 234 | 0.0 | 0.0 | 0.00 | 0.00 | 0.00 | 35 | 1011.6 |
| 20260503215855 | 59 | 236 | 2.0 | 3.0 | 0.00 | 0.00 | 0.00 | 37 | 1009.8 |
| 20260503215352 | 58 | 312 | 2.0 | 7.0 | 0.00 | 0.00 | 0.00 | 38 | 1010.0 |
| 20260503215338 | 58 | 234 | 0.0 | 0.0 | 0.00 | 0.00 | 0.00 | 36 | 1011.6 |
| 20260503214849 | 59 | 276 | 3.0 | 5.0 | 0.00 | 0.00 | 0.00 | 36 | 1010.0 |
| 20260503214824 | 58 | 236 | 0.0 | 0.0 | 0.00 | 0.00 | 0.00 | 36 | 1011.6 |
| 20260503214347 | 59 | 47 | 3.0 | 5.0 | 0.00 | 0.00 | 0.00 | 38 | 1010.1 |
| 20260503214320 | 58 | 299 | 0.0 | 0.0 | 0.00 | 0.00 | 0.00 | 38 | 1011.5 |
| 20260503213851 | 57 | 202 | 0.0 | 0.0 | 0.00 | 0.00 | 0.00 | 35 | 1011.5 |
| 20260503213844 | 58 | 12 | 2.0 | 3.0 | 0.00 | 0.00 | 0.00 | 37 | 1009.9 |
| 20260503213838 | 57 | 281 | 0.0 | 0.0 | 0.00 | 0.00 | 0.00 | 36 | 1011.5 |
| 20260503213342 | 57 | 195 | 2.0 | 4.0 | 0.00 | 0.00 | 0.00 | 38 | 1009.9 |
| 20260503212839 | 57 | 294 | 4.0 | 4.0 | 0.00 | 0.00 | 0.00 | 38 | 1010.4 |
| 20260503212819 | 58 | 240 | 0.0 | 0.0 | 0.00 | 0.00 | 0.00 | 35 | 1011.6 |
| 20260503212603 | 58 | 212 | 0.0 | 0.0 | 0.00 | 0.00 | 0.00 | 33 | 1011.5 |
| 20260503212336 | 57 | 230 | 3.0 | 7.0 | 0.00 | 0.00 | 0.00 | 36 | 1009.9 |
| 20260503211833 | 58 | 274 | 2.0 | 6.0 | 0.00 | 0.00 | 0.00 | 38 | 1010.1 |
| 20260503211818 | 58 | 209 | 0.0 | 0.0 | 0.00 | 0.00 | 0.00 | 34 | 1011.5 |
| 20260503211330 | 58 | 236 | 2.0 | 4.0 | 0.00 | 0.00 | 0.00 | 37 | 1009.8 |
| 20260503211317 | 59 | 212 | 0.0 | 0.0 | 0.00 | 0.00 | 0.00 | 34 | 1011.5 |
| 20260503210825 | 59 | 198 | 3.0 | 3.0 | 0.00 | 0.00 | 0.00 | 38 | 1009.9 |
| 20260503210802 | 60 | 227 | 0.0 | 0.0 | 0.00 | 0.00 | 0.00 | 36 | 1011.5 |
| 20260503210323 | 59 | 337 | 3.0 | 5.0 | 0.00 | 0.00 | 0.00 | 36 | 1010.0 |
| 20260503210245 | 59 | 221 | 0.0 | 0.0 | 0.00 | 0.00 | 0.00 | 36 | 1011.5 |
| 20260503205818 | 59 | 319 | 2.0 | 4.0 | 0.00 | 0.00 | 0.00 | 36 | 1009.9 |
| 20260503205746 | 59 | 266 | 0.0 | 0.0 | 0.00 | 0.00 | 0.00 | 35 | 1011.5 |
| 20260503205314 | 59 | 325 | 4.0 | 5.0 | 0.00 | 0.00 | 0.00 | 36 | 1010.0 |
| 20260503205246 | 59 | 245 | 0.0 | 0.0 | 0.00 | 0.00 | 0.00 | 36 | 1011.5 |
| 20260503204811 | 58 | 267 | 3.0 | 5.0 | 0.00 | 0.00 | 0.00 | 36 | 1010.2 |
| 20260503204748 | 59 | 275 | 0.0 | 0.0 | 0.00 | 0.00 | 0.00 | 33 | 1011.6 |
| 20260503204309 | 58 | 0 | 5.0 | 5.0 | 0.00 | 0.00 | 0.00 | 36 | 1010.1 |
| 20260503204244 | 59 | 288 | 0.0 | 0.0 | 0.00 | 0.00 | 0.00 | 33 | 1011.5 |
| 20260503203806 | 59 | 329 | 3.0 | 3.0 | 0.00 | 0.00 | 0.00 | 36 | 1010.0 |
| 20260503203743 | 60 | 279 | 0.0 | 0.0 | 0.00 | 0.00 | 0.00 | 34 | 1011.6 |
| 20260503203303 | 59 | 307 | 3.0 | 11.0 | 0.00 | 0.00 | 0.00 | 37 | 1010.0 |
| 20260503203244 | 59 | 285 | 0.0 | 0.0 | 0.00 | 0.00 | 0.00 | 33 | 1011.5 |
| 20260503202800 | 59 | 349 | 1.0 | 9.0 | 0.00 | 0.00 | 0.00 | 37 | 1010.0 |
| 20260503202742 | 59 | 261 | 0.0 | 0.0 | 0.00 | 0.00 | 0.00 | 36 | 1011.6 |
| 20260503202258 | 59 | 67 | 5.0 | 10.0 | 0.00 | 0.00 | 0.00 | 36 | 1009.9 |
| 20260503202242 | 59 | 257 | 0.0 | 0.0 | 0.00 | 0.00 | 0.00 | 35 | 1011.6 |
| 20260503201755 | 58 | 0 | 0.0 | 3.0 | 0.00 | 0.00 | 0.00 | 39 | 1010.0 |
| 20260503201753 | 59 | 275 | 0.0 | 0.0 | 0.00 | 0.00 | 0.00 | 36 | 1011.6 |
| 20260503201253 | 59 | 350 | 6.0 | 6.0 | 0.00 | 0.00 | 0.00 | 36 | 1010.1 |
| 20260503201237 | 59 | 289 | 0.0 | 0.0 | 0.00 | 0.00 | 0.00 | 35 | 1011.7 |
| 20260503200750 | 58 | 353 | 0.0 | 4.0 | 0.00 | 0.00 | 0.00 | 39 | 1010.3 |
| 20260503200738 | 58 | 302 | 0.0 | 0.0 | 0.00 | 0.00 | 0.00 | 36 | 1011.8 |
| 20260503200246 | 58 | 307 | 5.0 | 7.0 | 0.00 | 0.00 | 0.00 | 38 | 1010.3 |
| 20260503200238 | 58 | 257 | 0.0 | 0.0 | 0.00 | 0.00 | 0.00 | 36 | 1011.8 |
| 20260503195743 | 57 | 270 | 2.0 | 6.0 | 0.00 | 0.00 | 0.00 | 38 | 1010.2 |
| 20260503195738 | 57 | 285 | 0.0 | 0.0 | 0.00 | 0.00 | 0.00 | 37 | 1011.9 |
| 20260503195241 | 58 | 205 | 0.0 | 0.0 | 0.00 | 0.00 | 0.00 | 35 | 1012.0 |
| 20260503195239 | 57 | 233 | 2.0 | 4.0 | 0.00 | 0.00 | 0.00 | 36 | 1010.3 |
| 20260503194740 | 58 | 278 | 0.0 | 0.0 | 0.00 | 0.00 | 0.00 | 38 | 1012.0 |
| 20260503194738 | 58 | 35 | 4.0 | 9.0 | 0.00 | 0.00 | 0.00 | 37 | 1010.4 |
| 20260503194239 | 57 | 264 | 0.0 | 0.0 | 0.00 | 0.00 | 0.00 | 37 | 1012.0 |
| 20260503194233 | 57 | 349 | 5.0 | 7.0 | 0.00 | 0.00 | 0.00 | 38 | 1010.4 |
| 20260503193738 | 57 | 218 | 0.0 | 0.0 | 0.00 | 0.00 | 0.00 | 36 | 1012.1 |
| 20260503193729 | 57 | 259 | 3.0 | 5.0 | 0.00 | 0.00 | 0.00 | 37 | 1010.4 |
| 20260503193236 | 57 | 295 | 0.0 | 0.0 | 0.00 | 0.00 | 0.00 | 37 | 1012.2 |
| 20260503193225 | 56 | 356 | 4.0 | 6.0 | 0.00 | 0.00 | 0.00 | 42 | 1010.5 |
| 20260503192735 | 57 | 229 | 0.0 | 0.0 | 0.00 | 0.00 | 0.00 | 36 | 1012.2 |
| 20260503192721 | 56 | 202 | 2.0 | 9.0 | 0.00 | 0.00 | 0.00 | 39 | 1010.7 |
| 20260503192235 | 57 | 267 | 0.0 | 0.0 | 0.00 | 0.00 | 0.00 | 36 | 1012.2 |
| 20260503192216 | 56 | 265 | 6.0 | 11.0 | 0.00 | 0.00 | 0.00 | 38 | 1010.5 |
| 20260503191736 | 57 | 239 | 0.0 | 0.0 | 0.00 | 0.00 | 0.00 | 40 | 1012.3 |
| 20260503191714 | 58 | 2 | 4.0 | 7.0 | 0.00 | 0.00 | 0.00 | 38 | 1010.7 |
| 20260503191236 | 56 | 281 | 0.0 | 0.0 | 0.00 | 0.00 | 0.00 | 38 | 1012.3 |
| 20260503191211 | 56 | 15 | 0.0 | 4.0 | 0.00 | 0.00 | 0.00 | 40 | 1010.8 |
| 20260503190722 | 56 | 277 | 0.0 | 0.0 | 0.00 | 0.00 | 0.00 | 39 | 1012.4 |
| 20260503190707 | 56 | 334 | 6.0 | 7.0 | 0.00 | 0.00 | 0.00 | 39 | 1010.8 |
| 20260503190458 | 56 | 167 | 0.0 | 0.0 | 0.00 | 0.00 | 0.00 | 36 | 1012.4 |
| 20260503190204 | 55 | 221 | 4.0 | 9.0 | 0.00 | 0.00 | 0.00 | 39 | 1011.0 |
| 20260503185702 | 55 | 251 | 2.0 | 5.0 | 0.00 | 0.00 | 0.00 | 39 | 1010.8 |
| 20260503185654 | 56 | 229 | 0.0 | 0.0 | 0.00 | 0.00 | 0.00 | 36 | 1012.5 |
| 20260503185156 | 55 | 270 | 4.0 | 8.0 | 0.00 | 0.00 | 0.00 | 46 | 1010.9 |
| 20260503185148 | 56 | 246 | 0.0 | 0.0 | 0.00 | 0.00 | 0.00 | 39 | 1012.6 |
| 20260503184651 | 55 | 328 | 3.0 | 6.0 | 0.00 | 0.00 | 0.00 | 43 | 1011.1 |
| 20260503184647 | 57 | 258 | 0.0 | 7.0 | 0.00 | 0.00 | 0.00 | 37 | 1012.7 |
| 20260503184148 | 56 | 213 | 4.0 | 5.0 | 0.00 | 0.00 | 0.00 | 41 | 1010.9 |
| 20260503184146 | 58 | 190 | 0.0 | 7.0 | 0.00 | 0.00 | 0.00 | 37 | 1012.5 |
| 20260503183645 | 58 | 272 | 2.0 | 8.0 | 0.00 | 0.00 | 0.00 | 35 | 1012.7 |
| 20260503183147 | 58 | 295 | 5.0 | 10.0 | 0.00 | 0.00 | 0.00 | 36 | 1012.7 |
| 20260503183142 | 57 | 348 | 3.0 | 6.0 | 0.00 | 0.00 | 0.00 | 40 | 1011.3 |
| 20260503182931 | 57 | 292 | 4.0 | 10.0 | 0.00 | 0.00 | 0.00 | 35 | 1012.7 |
| 20260503182640 | 55 | 326 | 4.0 | 13.0 | 0.00 | 0.00 | 0.00 | 39 | 1011.1 |
| 20260503182156 | 58 | 290 | 4.0 | 10.0 | 0.00 | 0.00 | 0.00 | 34 | 1012.6 |
| 20260503182139 | 56 | 305 | 2.0 | 5.0 | 0.00 | 0.00 | 0.00 | 38 | 1011.1 |
| 20260503181644 | 58 | 285 | 4.0 | 14.0 | 0.00 | 0.00 | 0.00 | 35 | 1012.8 |
| 20260503181635 | 55 | 270 | 3.0 | 9.0 | 0.00 | 0.00 | 0.00 | 40 | 1011.2 |
| 20260503181147 | 57 | 290 | 4.0 | 14.0 | 0.00 | 0.00 | 0.00 | 39 | 1012.8 |
| 20260503181132 | 56 | 297 | 6.0 | 8.0 | 0.00 | 0.00 | 0.00 | 43 | 1011.2 |
| 20260503181000 | 56 | 285 | 5.0 | 10.0 | 0.00 | 0.00 | 0.00 | 38 | 1012.8 |
| 20260503180657 | 57 | 269 | 4.0 | 10.0 | 0.00 | 0.00 | 0.00 | 39 | 1012.7 |
| 20260503180628 | 56 | 270 | 1.0 | 5.0 | 0.00 | 0.00 | 0.00 | 40 | 1011.2 |
| 20260503180126 | 56 | 343 | 9.0 | 11.0 | 0.00 | 0.00 | 0.00 | 37 | 1011.2 |
| 20260503175912 | 57 | 263 | 5.0 | 11.0 | 0.00 | 0.00 | 0.00 | 34 | 1012.9 |
| 20260503175623 | 55 | 279 | 3.0 | 7.0 | 0.00 | 0.00 | 0.00 | 38 | 1011.3 |
| 20260503175410 | 56 | 286 | 5.0 | 11.0 | 0.00 | 0.00 | 0.00 | 35 | 1012.8 |
| 20260503175120 | 55 | 294 | 1.0 | 5.0 | 0.00 | 0.00 | 0.00 | 40 | 1011.1 |
| 20260503174911 | 57 | 223 | 5.0 | 11.0 | 0.00 | 0.00 | 0.00 | 36 | 1012.8 |
| 20260503174617 | 55 | 250 | 5.0 | 8.0 | 0.00 | 0.00 | 0.00 | 39 | 1011.1 |
| 20260503174117 | 57 | 170 | 5.0 | 11.0 | 0.00 | 0.00 | 0.00 | 37 | 1012.8 |
| 20260503174114 | 55 | 200 | 5.0 | 5.0 | 0.00 | 0.00 | 0.00 | 41 | 1011.3 |
| 20260503173617 | 58 | 355 | 5.0 | 13.0 | 0.00 | 0.00 | 0.00 | 35 | 1012.8 |
| 20260503173609 | 55 | 331 | 3.0 | 6.0 | 0.00 | 0.00 | 0.00 | 37 | 1011.2 |
| 20260503173404 | 58 | 290 | 6.0 | 13.0 | 0.00 | 0.00 | 0.00 | 39 | 1012.8 |
| 20260503173106 | 55 | 3 | 8.0 | 9.0 | 0.00 | 0.00 | 0.00 | 39 | 1011.1 |
| 20260503172631 | 56 | 288 | 5.0 | 13.0 | 0.00 | 0.00 | 0.00 | 35 | 1012.9 |
| 20260503172603 | 54 | 357 | 6.0 | 9.0 | 0.00 | 0.00 | 0.00 | 40 | 1011.4 |
| 20260503172118 | 56 | 201 | 4.0 | 13.0 | 0.00 | 0.00 | 0.00 | 38 | 1012.9 |
| 20260503172100 | 54 | 214 | 3.0 | 6.0 | 0.00 | 0.00 | 0.00 | 43 | 1011.3 |
| 20260503171618 | 56 | 242 | 4.0 | 9.0 | 0.00 | 0.00 | 0.00 | 37 | 1012.9 |
| 20260503171556 | 54 | 299 | 2.0 | 7.0 | 0.00 | 0.00 | 0.00 | 41 | 1011.3 |
| 20260503171113 | 57 | 277 | 4.0 | 10.0 | 0.00 | 0.00 | 0.00 | 36 | 1013.1 |
| 20260503171054 | 54 | 343 | 3.0 | 10.0 | 0.00 | 0.00 | 0.00 | 42 | 1011.4 |
| 20260503170949 | 56 | 275 | 5.0 | 10.0 | 0.00 | 0.00 | 0.00 | 36 | 1013.1 |
| 20260503170648 | 56 | 277 | 5.0 | 10.0 | 0.00 | 0.00 | 0.00 | 40 | 1013.1 |
| 20260503170550 | 54 | 359 | 5.0 | 13.0 | 0.00 | 0.00 | 0.00 | 41 | 1011.6 |
| 20260503160133 | 55 | 288 | 4.0 | 10.0 | 0.00 | 0.00 | 0.00 | 40 | 1013.5 |
| 20260503150943 | 49 | 3 | 2.0 | 5.0 | 0.00 | 0.00 | 0.00 | 53 | 1012.0 |
| 20260503150552 | 53 | 284 | 4.0 | 9.0 | 0.00 | 0.00 | 0.00 | 43 | 1013.6 |
| 20260503150439 | 51 | 352 | 3.0 | 5.0 | 0.00 | 0.00 | 0.00 | 50 | 1012.0 |
| 20260503131332 | 44 | 32 | 1.0 | 6.0 | 0.00 | 0.00 | 0.00 | 64 | 1011.9 |
| 20260503130942 | 46 | 299 | 4.0 | 8.0 | 0.00 | 0.00 | 0.00 | 60 | 1013.7 |
| 20260503130829 | 44 | 10 | 2.0 | 5.0 | 0.00 | 0.00 | 0.00 | 65 | 1012.0 |
| 20260503130439 | 46 | 285 | 4.0 | 9.0 | 0.00 | 0.00 | 0.00 | 59 | 1013.6 |
| 20260503130327 | 44 | 321 | 2.0 | 7.0 | 0.00 | 0.00 | 0.00 | 64 | 1011.9 |
| 20260503110743 | 42 | 287 | 2.0 | 6.0 | 0.00 | 0.00 | 0.00 | 70 | 1012.6 |
| 20260503110720 | 42 | 15 | 0.0 | 5.0 | 0.00 | 0.00 | 0.00 | 73 | 1010.9 |
| 20260503110436 | 42 | 293 | 2.0 | 4.0 | 0.00 | 0.00 | 0.00 | 70 | 1012.7 |
| 20260503110218 | 42 | 2 | 3.0 | 3.0 | 0.00 | 0.00 | 0.00 | 74 | 1010.8 |
| 20260503100144 | 42 | 60 | 3.0 | 3.0 | 0.00 | 0.00 | 0.00 | 77 | 1010.1 |
| 20260503090303 | 41 | 255 | 2.0 | 3.0 | 0.00 | 0.00 | 0.00 | 79 | 1011.3 |